Time,TemperatureF,DewpointF,PressureIn,WindDirection,WindDirectionDegrees,WindSpeedMPH,WindSpeedGustMPH,Humidity,HourlyPrecipIn,Conditions,Clouds,dailyrainin,SoftwareType,DateUTC
2013-04-21 00:08:00,30.7,30.5,29.81,South,180,16.6,-999.0,99,-99.99,,,0.00,Acu-Link.com,2013-04-21 06:08:00,
2013-04-21 00:23:00,30.7,30.5,29.81,South,180,15.4,-999.0,99,-99.99,,,0.00,Acu-Link.com,2013-04-21 06:23:00,
2013-04-21 00:38:00,30.7,30.5,29.81,SSW,202,13.4,-999.0,99,-99.99,,,0.00,Acu-Link.com,2013-04-21 06:38:00,
2013-04-21 00:53:00,30.7,30.5,29.80,South,180,11.9,-999.0,99,-99.99,,,0.00,Acu-Link.com,2013-04-21 06:53:00,
2013-04-21 01:08:00,30.7,30.5,29.80,SSE,157,11.0,-999.0,99,-99.99,,,0.00,Acu-Link.com,2013-04-21 07:08:00,
2013-04-21 01:23:00,30.7,30.5,29.79,South,180,11.9,-999.0,99,-99.99,,,0.00,Acu-Link.com,2013-04-21 07:23:00,
2013-04-21 01:39:00,30.7,30.5,29.78,SSW,202,8.3,-999.0,99,-99.99,,,0.00,Acu-Link.com,2013-04-21 07:39:00,
2013-04-21 01:54:00,30.7,30.5,29.78,SSW,202,11.0,-999.0,99,-99.99,,,0.00,Acu-Link.com,2013-04-21 07:54:00,
2013-04-21 02:09:00,31.1,30.9,29.78,SSW,202,8.9,-999.0,99,-99.99,,,0.00,Acu-Link.com,2013-04-21 08:09:00,
2013-04-21 02:24:00,31.1,30.9,29.78,SW,225,8.9,-999.0,99,-99.99,,,0.00,Acu-Link.com,2013-04-21 08:24:00,
2013-04-21 02:39:00,31.1,30.9,29.78,SSW,202,6.7,-999.0,99,-99.99,,,0.00,Acu-Link.com,2013-04-21 08:39:00,
2013-04-21 02:55:00,31.3,31.0,29.78,SSW,202,7.8,-999.0,99,-99.99,,,0.00,Acu-Link.com,2013-04-21 08:55:00,
2013-04-21 03:10:00,31.8,31.6,29.78,SW,225,9.8,-999.0,99,-99.99,,,0.00,Acu-Link.com,2013-04-21 09:10:00,
2013-04-21 03:25:00,32.2,31.9,29.78,WSW,247,9.4,-999.0,99,-99.99,,,0.00,Acu-Link.com,2013-04-21 09:25:00,
2013-04-21 03:40:00,32.9,32.7,29.78,SW,225,11.4,-999.0,99,-99.99,,,0.00,Acu-Link.com,2013-04-21 09:40:00,
2013-04-21 03:55:00,33.4,33.2,29.78,SW,225,11.0,-999.0,99,-99.99,,,0.00,Acu-Link.com,2013-04-21 09:55:00,
2013-04-21 04:11:00,35.1,34.8,29.78,West,270,9.8,-999.0,99,-99.99,,,0.00,Acu-Link.com,2013-04-21 10:11:00,
2013-04-21 04:26:00,36.5,36.0,29.79,West,270,13.4,-999.0,98,-99.99,,,0.00,Acu-Link.com,2013-04-21 10:26:00,
2013-04-21 04:41:00,37.0,36.5,29.80,West,270,15.0,-999.0,98,-99.99,,,0.00,Acu-Link.com,2013-04-21 10:41:00,
2013-04-21 04:56:00,37.0,36.5,29.81,West,270,16.6,-999.0,98,-99.99,,,0.00,Acu-Link.com,2013-04-21 10:56:00,
2013-04-21 05:11:00,36.3,35.8,29.81,NW,315,16.6,-999.0,98,-99.99,,,0.00,Acu-Link.com,2013-04-21 11:11:00,
2013-04-21 05:26:00,35.4,35.2,29.83,NW,315,21.3,-999.0,99,-99.99,,,0.00,Acu-Link.com,2013-04-21 11:26:00,
2013-04-21 05:42:00,34.7,34.4,29.83,WNW,292,16.1,-999.0,99,-99.99,,,0.00,Acu-Link.com,2013-04-21 11:42:00,
2013-04-21 05:57:00,34.3,34.1,29.84,WNW,292,14.1,-999.0,99,-99.99,,,0.00,Acu-Link.com,2013-04-21 11:57:00,
2013-04-21 06:12:00,34.0,33.7,29.85,West,270,16.6,-999.0,99,-99.99,,,0.00,Acu-Link.com,2013-04-21 12:12:00,
2013-04-21 06:27:00,33.3,33.0,29.87,NW,315,14.1,-999.0,99,-99.99,,,0.00,Acu-Link.com,2013-04-21 12:27:00,
2013-04-21 06:42:00,32.9,32.4,29.88,NNW,337,21.7,-999.0,98,-99.99,,,0.00,Acu-Link.com,2013-04-21 12:42:00,
2013-04-21 06:58:00,32.9,32.1,29.89,NNW,337,18.6,-999.0,97,-99.99,,,0.00,Acu-Link.com,2013-04-21 12:58:00,
2013-04-21 07:13:00,32.9,31.9,29.89,NNE,22,21.3,-999.0,96,-99.99,,,0.00,Acu-Link.com,2013-04-21 13:13:00,
2013-04-21 07:28:00,32.5,31.5,29.92,WNW,292,15.4,-999.0,96,-99.99,,,0.00,Acu-Link.com,2013-04-21 13:28:00,
2013-04-21 07:43:00,32.4,31.1,29.92,WNW,292,14.5,-999.0,95,-99.99,,,0.00,Acu-Link.com,2013-04-21 13:43:00,
2013-04-21 07:58:00,32.5,30.5,29.93,NNE,22,13.0,-999.0,92,-99.99,,,0.00,Acu-Link.com,2013-04-21 13:58:00,
2013-04-21 08:14:00,32.7,30.4,29.94,NW,315,20.1,-999.0,91,-99.99,,,0.00,Acu-Link.com,2013-04-21 14:14:00,
2013-04-21 08:29:00,33.1,30.5,29.94,NW,315,23.3,-999.0,90,-99.99,,,0.00,Acu-Link.com,2013-04-21 14:29:00,
2013-04-21 08:44:00,33.8,29.8,29.94,NNW,337,18.6,-999.0,85,-99.99,,,0.00,Acu-Link.com,2013-04-21 14:44:00,
2013-04-21 08:59:00,33.8,29.8,29.95,NW,315,16.1,-999.0,85,-99.99,,,0.00,Acu-Link.com,2013-04-21 14:59:00,
2013-04-21 09:14:00,33.8,29.5,29.96,NW,315,11.0,-999.0,84,-99.99,,,0.00,Acu-Link.com,2013-04-21 15:14:00,
2013-04-21 09:29:00,33.8,29.8,29.97,NNW,337,15.0,-999.0,85,-99.99,,,0.00,Acu-Link.com,2013-04-21 15:29:00,
2013-04-21 09:45:00,34.3,30.3,29.98,NNW,337,11.4,-999.0,85,-99.99,,,0.00,Acu-Link.com,2013-04-21 15:45:00,
2013-04-21 10:00:00,33.6,29.9,29.98,NNW,337,17.7,-999.0,86,-99.99,,,0.00,Acu-Link.com,2013-04-21 16:00:00,
2013-04-21 10:15:00,34.7,30.4,29.99,WNW,292,12.5,-999.0,84,-99.99,,,0.00,Acu-Link.com,2013-04-21 16:15:00,
2013-04-21 10:30:00,36.0,30.1,29.98,NW,315,15.4,-999.0,79,-99.99,,,0.00,Acu-Link.com,2013-04-21 16:30:00,
2013-04-21 10:45:00,36.9,29.0,29.99,WNW,292,13.4,-999.0,73,-99.99,,,0.00,Acu-Link.com,2013-04-21 16:45:00,
2013-04-21 11:01:00,36.9,30.0,30.00,WNW,292,18.6,-999.0,76,-99.99,,,0.00,Acu-Link.com,2013-04-21 17:01:00,
2013-04-21 11:16:00,36.0,29.1,30.00,NNE,22,14.5,-999.0,76,-99.99,,,0.00,Acu-Link.com,2013-04-21 17:16:00,
2013-04-21 11:31:00,36.0,28.2,30.01,NNW,337,19.0,-999.0,73,-99.99,,,0.00,Acu-Link.com,2013-04-21 17:31:00,
2013-04-21 11:46:00,36.1,28.3,30.01,WNW,292,16.1,-999.0,73,-99.99,,,0.00,Acu-Link.com,2013-04-21 17:46:00,
2013-04-21 12:01:00,37.0,28.2,30.01,WNW,292,15.0,-999.0,70,-99.99,,,0.00,Acu-Link.com,2013-04-21 18:01:00,
2013-04-21 12:16:00,37.6,28.3,30.01,NW,315,14.1,-999.0,69,-99.99,,,0.00,Acu-Link.com,2013-04-21 18:16:00,
2013-04-21 12:32:00,37.6,28.3,30.02,NW,315,16.1,-999.0,69,-99.99,,,0.00,Acu-Link.com,2013-04-21 18:32:00,
2013-04-21 12:47:00,37.0,28.5,30.02,West,270,11.0,-999.0,71,-99.99,,,0.00,Acu-Link.com,2013-04-21 18:47:00,
2013-04-21 13:02:00,37.2,28.7,30.02,NW,315,11.4,-999.0,71,-99.99,,,0.00,Acu-Link.com,2013-04-21 19:02:00,
2013-04-21 13:17:00,37.4,29.2,30.03,West,270,16.1,-999.0,72,-99.99,,,0.00,Acu-Link.com,2013-04-21 19:17:00,
2013-04-21 13:32:00,36.9,28.7,30.03,NNW,337,17.0,-999.0,72,-99.99,,,0.00,Acu-Link.com,2013-04-21 19:32:00,
2013-04-21 13:48:00,37.4,28.9,30.03,WNW,292,14.5,-999.0,71,-99.99,,,0.00,Acu-Link.com,2013-04-21 19:48:00,
2013-04-21 14:03:00,36.7,27.8,30.04,West,270,16.6,-999.0,70,-99.99,,,0.00,Acu-Link.com,2013-04-21 20:03:00,
2013-04-21 14:18:00,36.5,27.3,30.04,NNE,22,11.4,-999.0,69,-99.99,,,0.00,Acu-Link.com,2013-04-21 20:18:00,
2013-04-21 14:33:00,37.2,28.0,30.04,NNW,337,9.4,-999.0,69,-99.99,,,0.00,Acu-Link.com,2013-04-21 20:33:00,
2013-04-21 14:48:00,37.8,28.2,30.04,NW,315,12.5,-999.0,68,-99.99,,,0.00,Acu-Link.com,2013-04-21 20:48:00,
2013-04-21 15:03:00,36.9,26.9,30.05,WNW,292,13.4,-999.0,67,-99.99,,,0.00,Acu-Link.com,2013-04-21 21:03:00,
2013-04-21 15:19:00,37.6,27.3,30.05,NW,315,14.1,-999.0,66,-99.99,,,0.00,Acu-Link.com,2013-04-21 21:19:00,
2013-04-21 15:34:00,36.9,26.9,30.06,NNW,337,11.0,-999.0,67,-99.99,,,0.00,Acu-Link.com,2013-04-21 21:34:00,
2013-04-21 15:49:00,36.7,27.5,30.05,West,270,6.7,-999.0,69,-99.99,,,0.00,Acu-Link.com,2013-04-21 21:49:00,
2013-04-21 16:04:00,37.0,26.0,30.06,NNW,337,14.5,-999.0,64,-99.99,,,0.00,Acu-Link.com,2013-04-21 22:04:00,
2013-04-21 16:19:00,37.6,26.5,30.06,NW,315,15.0,-999.0,64,-99.99,,,0.00,Acu-Link.com,2013-04-21 22:19:00,
2013-04-21 16:35:00,37.4,26.4,30.06,North,0,10.3,-999.0,64,-99.99,,,0.00,Acu-Link.com,2013-04-21 22:35:00,
2013-04-21 16:50:00,36.5,25.9,30.06,NNW,337,11.9,-999.0,65,-99.99,,,0.00,Acu-Link.com,2013-04-21 22:50:00,
2013-04-21 17:05:00,36.0,25.7,30.07,NNW,337,11.0,-999.0,66,-99.99,,,0.00,Acu-Link.com,2013-04-21 23:05:00,
2013-04-21 17:20:00,36.0,27.1,30.07,WNW,292,6.3,-999.0,70,-99.99,,,0.00,Acu-Link.com,2013-04-21 23:20:00,
2013-04-21 17:35:00,35.6,26.5,30.07,NNW,337,8.9,-999.0,69,-99.99,,,0.00,Acu-Link.com,2013-04-21 23:35:00,
2013-04-21 17:51:00,35.2,26.1,30.08,NNW,337,6.7,-999.0,69,-99.99,,,0.00,Acu-Link.com,2013-04-21 23:51:00,
2013-04-21 18:06:00,35.1,27.0,30.08,NE,45,4.7,-999.0,72,-99.99,,,0.00,Acu-Link.com,2013-04-22 00:06:00,
2013-04-21 18:21:00,35.1,26.6,30.08,NNW,337,7.4,-999.0,71,-99.99,,,0.00,Acu-Link.com,2013-04-22 00:21:00,
2013-04-21 18:36:00,34.2,26.1,30.08,NNW,337,11.0,-999.0,72,-99.99,,,0.00,Acu-Link.com,2013-04-22 00:36:00,
2013-04-21 18:51:00,33.8,25.7,30.09,NNW,337,5.1,-999.0,72,-99.99,,,0.00,Acu-Link.com,2013-04-22 00:51:00,
2013-04-21 19:06:00,33.6,26.2,30.08,NE,45,6.3,-999.0,74,-99.99,,,0.00,Acu-Link.com,2013-04-22 01:06:00,
2013-04-21 19:22:00,32.7,25.4,30.09,WNW,292,7.4,-999.0,74,-99.99,,,0.00,Acu-Link.com,2013-04-22 01:22:00,
2013-04-21 19:37:00,31.8,25.8,30.09,NNW,337,6.3,-999.0,78,-99.99,,,0.00,Acu-Link.com,2013-04-22 01:37:00,
2013-04-21 19:52:00,30.9,25.2,30.10,NNW,337,4.3,-999.0,79,-99.99,,,0.00,Acu-Link.com,2013-04-22 01:52:00,
2013-04-21 20:07:00,30.0,24.9,30.10,NW,315,3.1,-999.0,81,-99.99,,,0.00,Acu-Link.com,2013-04-22 02:07:00,
2013-04-21 20:22:00,29.5,25.0,30.10,North,0,2.2,-999.0,83,-99.99,,,0.00,Acu-Link.com,2013-04-22 02:22:00,
2013-04-21 20:38:00,28.9,24.7,30.11,North,0,3.1,-999.0,84,-99.99,,,0.00,Acu-Link.com,2013-04-22 02:38:00,
2013-04-21 20:53:00,28.8,24.5,30.12,North,0,0.0,-999.0,84,-99.99,,,0.00,Acu-Link.com,2013-04-22 02:53:00,
2013-04-21 21:08:00,28.6,24.4,30.12,NNW,337,2.2,-999.0,84,-99.99,,,0.00,Acu-Link.com,2013-04-22 03:08:00,
2013-04-21 21:23:00,28.2,24.3,30.13,WNW,292,2.2,-999.0,85,-99.99,,,0.00,Acu-Link.com,2013-04-22 03:23:00,
2013-04-21 21:38:00,28.2,24.6,30.13,NNE,22,4.3,-999.0,86,-99.99,,,0.00,Acu-Link.com,2013-04-22 03:38:00,
2013-04-21 21:53:00,28.0,24.4,30.14,NNW,337,2.7,-999.0,86,-99.99,,,0.00,Acu-Link.com,2013-04-22 03:53:00,
2013-04-21 22:09:00,28.0,24.4,30.14,NNE,22,4.3,-999.0,86,-99.99,,,0.00,Acu-Link.com,2013-04-22 04:09:00,
2013-04-21 22:24:00,28.0,24.7,30.14,ENE,67,3.8,-999.0,87,-99.99,,,0.00,Acu-Link.com,2013-04-22 04:24:00,
2013-04-21 22:39:00,28.0,24.7,30.15,NE,45,5.1,-999.0,87,-99.99,,,0.00,Acu-Link.com,2013-04-22 04:39:00,
2013-04-21 22:54:00,27.7,24.1,30.15,NNE,22,5.1,-999.0,86,-99.99,,,0.00,Acu-Link.com,2013-04-22 04:54:00,
2013-04-21 23:09:00,27.3,24.0,30.16,East,90,6.7,-999.0,87,-99.99,,,0.00,Acu-Link.com,2013-04-22 05:09:00,
2013-04-21 23:25:00,27.0,23.6,30.16,ESE,112,4.7,-999.0,87,-99.99,,,0.00,Acu-Link.com,2013-04-22 05:25:00,
2013-04-21 23:55:00,26.2,23.4,30.17,NE,45,3.8,-999.0,89,-99.99,,,0.00,Acu-Link.com,2013-04-22 05:55:00,